START_TIME,STEP,MOV.,M6,t_acc.,M7,t_acc.,M19,t_acc.,H36,t_acc.
1979-07-14 03:00:27.400 ,1,0,0.,12.0,0.,12.0,0.,12.0,0.,12.0
1979-07-14 03:00:39.400 ,1,0,0.,12.0,0.,12.0,0.,12.0,0.,12.0
1979-07-14 03:00:51.400 ,2,1,1.,12.0,0.,12.0,0.,12.0,0.,12.0
1979-07-14 03:01:03.400 ,2,1,0.,12.0,0.,12.0,0.,12.0,0.,12.0
1979-07-14 03:01:15.400 ,2,0,1.,12.0,0.,12.0,0.,12.0,0.,12.0
1979-07-14 03:01:27.400 ,2,0,1.,12.0,0.,12.0,0.,12.0,0.,12.0
1979-07-14 03:01:39.400 ,3,1,1.,12.0,0.,12.0,0.,12.0,1.,12.0
1979-07-14 03:01:51.400 ,3,1,1.,12.0,0.,12.0,0.,12.0,0.,12.0
1979-07-14 03:02:03.400 ,3,0,0.,12.0,0.,12.0,0.,12.0,0.,12.0
1979-07-14 03:02:15.400 ,3,0,0.,12.0,0.,12.0,0.,12.0,0.,12.0
1979-07-14 03:02:27.400 ,4,1,0.,12.0,0.,12.0,0.,12.0,0.,12.0
1979-07-14 03:02:39.400 ,4,1,0.,12.0,0.,12.0,0.,12.0,0.,12.0
1979-07-14 03:02:51.400 ,4,0,0.,12.0,0.,12.0,0.,12.0,0.,12.0
1979-07-14 03:03:03.400 ,4,0,0.,12.0,0.,12.0,0.,12.0,0.,12.0
1979-07-14 03:03:15.400 ,5,1,1.,12.0,0.,12.0,0.,12.0,1.,12.0
1979-07-14 03:03:27.400 ,5,1,0.,12.0,0.,12.0,0.,12.0,1.,12.0
1979-07-14 03:03:39.400 ,5,0,0.,12.0,0.,12.0,0.,12.0,0.,12.0
1979-07-14 03:03:51.400 ,5,0,0.,12.0,0.,12.0,0.,12.0,0.,12.0
1979-07-14 03:04:03.400 ,6,1,0.,12.0,0.,12.0,0.,12.0,0.,12.0
1979-07-14 03:04:15.400 ,6,1,0.,12.0,0.,12.0,0.,12.0,0.,12.0
1979-07-14 03:04:27.400 ,6,0,0.,12.0,0.,12.0,0.,12.0,0.,12.0
1979-07-14 03:04:39.400 ,6,0,0.,12.0,0.,12.0,0.,12.0,0.,12.0
1979-07-14 03:04:51.400 ,7,1,0.,12.0,0.,12.0,0.,12.0,0.,12.0
1979-07-14 03:05:03.400 ,7,1,0.,12.0,0.,12.0,0.,12.0,0.,12.0
1979-07-14 03:05:15.400 ,7,0,0.,12.0,0.,12.0,0.,12.0,0.,12.0
1979-07-14 03:05:27.400 ,7,0,0.,12.0,0.,12.0,0.,12.0,0.,12.0
1979-07-14 03:05:39.400 ,7,1,0.,12.0,0.,12.0,0.,12.0,0.,12.0
1979-07-14 03:05:51.400 ,7,1,0.,12.0,0.,12.0,0.,12.0,0.,12.0
1979-07-14 03:06:03.400 ,7,0,0.,12.0,0.,12.0,0.,12.0,0.,12.0
1979-07-14 03:06:15.400 ,7,0,0.,12.0,0.,12.0,0.,12.0,0.,12.0
1979-07-14 03:06:27.400 ,6,1,0.,12.0,0.,12.0,0.,12.0,0.,12.0
1979-07-14 03:06:39.400 ,6,1,1.,12.0,0.,12.0,0.,12.0,0.,12.0
1979-07-14 03:06:51.400 ,6,0,0.,12.0,0.,12.0,0.,12.0,0.,12.0
1979-07-14 03:07:03.400 ,6,0,0.,12.0,0.,12.0,0.,12.0,0.,12.0
1979-07-14 03:07:15.400 ,5,1,0.,12.0,0.,12.0,0.,12.0,0.,12.0
1979-07-14 03:07:27.400 ,5,1,1.,12.0,0.,12.0,0.,12.0,0.,12.0
1979-07-14 03:07:39.400 ,5,0,0.,12.0,0.,12.0,0.,12.0,0.,12.0
1979-07-14 03:07:51.400 ,5,0,0.,12.0,0.,12.0,0.,12.0,0.,12.0
1979-07-14 03:08:03.400 ,4,1,1.,12.0,0.,12.0,0.,12.0,0.,12.0
1979-07-14 03:08:15.400 ,4,1,0.,12.0,0.,12.0,0.,12.0,0.,12.0
1979-07-14 03:08:27.400 ,4,0,1.,12.0,0.,12.0,0.,12.0,0.,12.0
1979-07-14 03:08:39.400 ,4,0,0.,12.0,0.,12.0,0.,12.0,0.,12.0
1979-07-14 03:08:51.400 ,3,1,0.,12.0,0.,12.0,0.,12.0,0.,12.0
1979-07-14 03:09:03.400 ,3,1,0.,12.0,0.,12.0,0.,12.0,0.,12.0
1979-07-14 03:09:15.400 ,3,0,0.,12.0,0.,12.0,0.,12.0,0.,12.0
1979-07-14 03:09:27.400 ,3,0,0.,12.0,0.,12.0,0.,12.0,0.,12.0
1979-07-14 03:09:39.400 ,2,1,0.,12.0,0.,12.0,0.,12.0,0.,12.0
1979-07-14 03:09:51.400 ,2,1,0.,12.0,0.,12.0,0.,12.0,0.,12.0
1979-07-14 03:10:03.400 ,2,0,0.,12.0,0.,12.0,0.,12.0,0.,12.0
1979-07-14 03:10:15.400 ,2,0,0.,12.0,0.,12.0,0.,12.0,0.,12.0
1979-07-14 03:10:27.400 ,1,1,0.,12.0,0.,12.0,0.,12.0,0.,12.0
1979-07-14 03:10:39.400 ,1,1,0.,12.0,0.,12.0,0.,12.0,0.,12.0
1979-07-14 03:10:51.400 ,1,0,0.,12.0,0.,12.0,0.,12.0,0.,12.0
1979-07-14 03:11:03.400 ,1,0,0.,12.0,0.,12.0,0.,12.0,0.,12.0
1979-07-14 03:11:15.400 ,0,1,0.,12.0,0.,12.0,0.,12.0,0.,12.0
1979-07-14 03:11:27.400 ,0,1,0.,12.0,0.,12.0,0.,12.0,0.,12.0
1979-07-14 03:11:39.400 ,0,0,0.,12.0,0.,12.0,0.,12.0,0.,12.0
1979-07-14 03:11:51.400 ,0,0,0.,12.0,0.,12.0,0.,12.0,0.,12.0
1979-07-14 03:12:03.400 ,0,1,0.,12.0,0.,12.0,0.,12.0,0.,12.0
1979-07-14 03:12:15.400 ,0,1,0.,12.0,0.,12.0,0.,12.0,0.,12.0
1979-07-14 03:12:27.400 ,0,0,0.,12.0,0.,12.0,0.,12.0,0.,12.0
1979-07-14 03:12:39.400 ,0,0,0.,12.0,0.,12.0,0.,12.0,0.,12.0
1979-07-14 03:12:51.400 ,1,1,0.,12.0,0.,12.0,0.,12.0,0.,12.0
1979-07-14 03:13:03.400 ,1,1,0.,12.0,0.,12.0,0.,12.0,0.,12.0
1979-07-14 03:13:15.400 ,1,0,0.,12.0,0.,12.0,0.,12.0,0.,12.0
1979-07-14 03:13:27.400 ,1,0,0.,12.0,0.,12.0,0.,12.0,0.,12.0
1979-07-14 03:13:39.400 ,2,1,0.,12.0,0.,12.0,0.,12.0,0.,12.0
1979-07-14 03:13:51.400 ,2,1,0.,12.0,0.,12.0,0.,12.0,0.,12.0
1979-07-14 03:14:03.400 ,2,0,0.,12.0,0.,12.0,0.,12.0,0.,12.0
1979-07-14 03:14:15.400 ,2,0,0.,12.0,0.,12.0,0.,12.0,0.,12.0
1979-07-14 03:14:27.400 ,3,1,1.,12.0,0.,12.0,0.,12.0,0.,12.0
1979-07-14 03:14:39.400 ,3,1,0.,12.0,0.,12.0,0.,12.0,0.,12.0
1979-07-14 03:14:51.400 ,3,0,0.,12.0,0.,12.0,0.,12.0,0.,12.0
1979-07-14 03:15:03.400 ,3,0,0.,12.0,0.,12.0,0.,12.0,0.,12.0
1979-07-14 03:15:15.400 ,4,1,0.,12.0,0.,12.0,0.,12.0,0.,12.0
1979-07-14 03:15:27.400 ,4,1,0.,12.0,0.,12.0,0.,12.0,0.,12.0
1979-07-14 03:15:39.400 ,4,0,0.,12.0,0.,12.0,0.,12.0,0.,12.0
1979-07-14 03:15:51.400 ,4,0,0.,12.0,0.,12.0,0.,12.0,0.,12.0
1979-07-14 03:16:03.400 ,5,1,0.,12.0,0.,12.0,0.,12.0,0.,12.0
1979-07-14 03:16:15.400 ,5,1,0.,12.0,0.,12.0,0.,12.0,0.,12.0
1979-07-14 03:16:27.400 ,5,0,0.,12.0,0.,12.0,0.,12.0,0.,12.0
1979-07-14 03:16:39.400 ,5,0,0.,12.0,0.,12.0,0.,12.0,0.,12.0
1979-07-14 03:16:51.400 ,6,1,0.,12.0,0.,12.0,0.,12.0,0.,12.0
1979-07-14 03:17:03.400 ,6,1,0.,12.0,0.,12.0,0.,12.0,0.,12.0
1979-07-14 03:17:15.400 ,6,0,0.,12.0,0.,12.0,0.,12.0,0.,12.0
1979-07-14 03:17:27.400 ,6,0,0.,12.0,0.,12.0,0.,12.0,0.,12.0
1979-07-14 03:17:39.400 ,7,1,0.,12.0,0.,12.0,0.,12.0,1.,12.0
1979-07-14 03:17:51.400 ,7,1,0.,12.0,0.,12.0,0.,12.0,0.,12.0
1979-07-14 03:18:03.400 ,7,0,0.,12.0,0.,12.0,0.,12.0,0.,12.0
1979-07-14 03:18:15.400 ,7,0,0.,12.0,0.,12.0,0.,12.0,0.,12.0
1979-07-14 03:18:27.400 ,7,1,0.,12.0,0.,12.0,0.,12.0,0.,12.0
1979-07-14 03:18:39.400 ,7,1,0.,12.0,0.,12.0,0.,12.0,0.,12.0
1979-07-14 03:18:51.400 ,7,0,0.,12.0,0.,12.0,0.,12.0,0.,12.0
1979-07-14 03:19:03.400 ,7,0,0.,12.0,0.,12.0,0.,12.0,0.,12.0
1979-07-14 03:19:15.400 ,6,1,0.,12.0,0.,12.0,0.,12.0,0.,12.0
1979-07-14 03:19:27.400 ,6,1,0.,12.0,0.,12.0,0.,12.0,0.,12.0
1979-07-14 03:19:39.400 ,6,0,0.,12.0,0.,12.0,0.,12.0,0.,12.0
1979-07-14 03:19:51.400 ,6,0,0.,12.0,0.,12.0,0.,12.0,0.,12.0
1979-07-14 03:20:03.400 ,5,1,0.,12.0,0.,12.0,0.,12.0,0.,12.0
1979-07-14 03:20:15.400 ,5,1,0.,12.0,0.,12.0,0.,12.0,0.,12.0
1979-07-14 03:20:27.400 ,5,0,0.,12.0,0.,12.0,0.,12.0,0.,12.0
1979-07-14 03:20:39.400 ,5,0,0.,12.0,0.,12.0,0.,12.0,0.,12.0
1979-07-14 03:20:51.400 ,4,1,0.,12.0,0.,12.0,0.,12.0,0.,12.0
1979-07-14 03:21:03.400 ,4,1,0.,12.0,0.,12.0,0.,12.0,0.,12.0
1979-07-14 03:21:15.400 ,4,0,0.,12.0,0.,12.0,0.,12.0,0.,12.0
1979-07-14 03:21:27.400 ,4,0,0.,12.0,0.,12.0,0.,12.0,0.,12.0
1979-07-14 03:21:39.400 ,3,1,0.,12.0,0.,12.0,0.,12.0,0.,12.0
1979-07-14 03:21:51.400 ,3,1,0.,12.0,0.,12.0,0.,12.0,0.,12.0
1979-07-14 03:22:03.400 ,3,0,0.,12.0,0.,12.0,0.,12.0,0.,12.0
1979-07-14 03:22:15.400 ,3,0,0.,12.0,0.,12.0,0.,12.0,2.,12.0
1979-07-14 03:22:27.400 ,2,1,0.,12.0,0.,12.0,0.,12.0,1.,12.0
1979-07-14 03:22:39.400 ,2,1,0.,12.0,0.,12.0,0.,12.0,0.,12.0
1979-07-14 03:22:51.400 ,2,0,1.,12.0,0.,12.0,0.,12.0,0.,12.0
1979-07-14 03:23:03.400 ,2,0,0.,12.0,0.,12.0,0.,12.0,0.,12.0
1979-07-14 03:23:15.400 ,1,1,0.,12.0,0.,12.0,0.,12.0,0.,12.0
1979-07-14 03:23:27.400 ,1,1,0.,12.0,0.,12.0,0.,12.0,0.,12.0
1979-07-14 03:23:39.400 ,1,0,0.,12.0,0.,12.0,0.,12.0,0.,12.0
1979-07-14 03:23:51.400 ,1,0,0.,12.0,0.,12.0,0.,12.0,0.,12.0
1979-07-14 03:24:03.400 ,0,1,0.,12.0,0.,12.0,0.,12.0,0.,12.0
1979-07-14 03:24:15.400 ,0,1,0.,12.0,0.,12.0,0.,12.0,0.,12.0
1979-07-14 03:24:27.400 ,0,0,0.,12.0,0.,12.0,0.,12.0,0.,12.0
1979-07-14 03:24:39.400 ,0,0,0.,12.0,0.,12.0,0.,12.0,0.,12.0
1979-07-14 03:24:51.400 ,0,1,0.,12.0,0.,12.0,0.,12.0,0.,12.0
1979-07-14 03:25:03.400 ,0,1,0.,12.0,0.,12.0,0.,12.0,0.,12.0
1979-07-14 03:25:15.400 ,0,0,0.,12.0,0.,12.0,0.,12.0,0.,12.0
1979-07-14 03:25:27.400 ,0,0,0.,12.0,0.,12.0,0.,12.0,0.,12.0
1979-07-14 03:25:39.400 ,1,1,0.,12.0,0.,12.0,0.,12.0,0.,12.0
1979-07-14 03:25:51.400 ,1,1,0.,12.0,0.,12.0,0.,12.0,0.,12.0
1979-07-14 03:26:03.400 ,1,0,0.,12.0,0.,12.0,0.,12.0,0.,12.0
1979-07-14 03:26:15.400 ,1,0,0.,12.0,0.,12.0,0.,12.0,0.,12.0
1979-07-14 03:26:27.400 ,2,1,0.,12.0,0.,12.0,0.,12.0,0.,12.0
1979-07-14 03:26:39.400 ,2,1,0.,12.0,0.,12.0,0.,12.0,0.,12.0
1979-07-14 03:26:51.400 ,2,0,0.,12.0,0.,12.0,0.,12.0,0.,12.0
1979-07-14 03:27:03.400 ,2,0,0.,12.0,0.,12.0,0.,12.0,0.,12.0
1979-07-14 03:27:15.400 ,3,1,0.,12.0,0.,12.0,0.,12.0,0.,12.0
1979-07-14 03:27:27.400 ,3,1,0.,12.0,0.,12.0,0.,12.0,0.,12.0
1979-07-14 03:27:39.400 ,3,0,0.,12.0,0.,12.0,0.,12.0,0.,12.0
1979-07-14 03:27:51.400 ,3,0,0.,12.0,0.,12.0,0.,12.0,0.,12.0
1979-07-14 03:28:03.400 ,4,1,0.,12.0,0.,12.0,0.,12.0,0.,12.0
1979-07-14 03:28:15.400 ,4,1,0.,12.0,0.,12.0,0.,12.0,0.,12.0
1979-07-14 03:28:27.400 ,4,0,0.,12.0,0.,12.0,0.,12.0,0.,12.0
1979-07-14 03:28:39.400 ,4,0,0.,12.0,0.,12.0,0.,12.0,0.,12.0
1979-07-14 03:28:51.400 ,5,1,0.,12.0,0.,12.0,0.,12.0,0.,12.0
1979-07-14 03:29:03.400 ,5,1,0.,12.0,0.,12.0,0.,12.0,0.,12.0
1979-07-14 03:29:15.400 ,5,0,0.,12.0,0.,12.0,0.,12.0,0.,12.0
1979-07-14 03:29:27.400 ,5,0,0.,12.0,0.,12.0,0.,12.0,0.,12.0
1979-07-14 03:29:39.400 ,6,1,0.,12.0,0.,12.0,0.,12.0,0.,12.0
1979-07-14 03:29:51.400 ,6,1,0.,12.0,0.,12.0,0.,12.0,1.,12.0
1979-07-14 03:30:03.400 ,6,0,0.,12.0,0.,12.0,0.,12.0,0.,12.0
1979-07-14 03:30:15.400 ,6,0,0.,12.0,0.,12.0,0.,12.0,0.,12.0
1979-07-14 03:30:27.400 ,7,0,0.,12.0,0.,12.0,0.,12.0,0.,12.0
1979-07-14 03:30:39.400 ,7,0,0.,12.0,0.,12.0,0.,12.0,0.,12.0
1979-07-14 03:30:51.400 ,7,0,0.,12.0,0.,12.0,0.,12.0,0.,12.0
1979-07-14 03:31:03.400 ,7,0,0.,12.0,0.,12.0,0.,12.0,0.,12.0
1979-07-14 03:31:15.400 ,4,1,1.,12.0,0.,12.0,0.,12.0,0.,12.0
1979-07-14 03:31:27.400 ,4,1,0.,12.0,0.,12.0,0.,12.0,0.,12.0
1979-07-14 03:31:39.400 ,0,1,0.,12.0,0.,12.0,0.,12.0,0.,12.0
1979-07-14 03:31:51.400 ,0,1,0.,12.0,0.,12.0,0.,12.0,0.,12.0
1979-07-14 03:32:03.400 ,3,1,0.,12.0,0.,12.0,0.,12.0,0.,12.0
1979-07-14 03:32:15.400 ,3,1,0.,12.0,0.,12.0,0.,12.0,0.,12.0
1979-07-14 03:32:27.400 ,7,1,0.,12.0,0.,12.0,0.,12.0,0.,12.0
1979-07-14 03:32:39.400 ,7,1,0.,12.0,0.,12.0,0.,12.0,0.,12.0
1979-07-14 03:33:39.400 ,0,0,0.,12.0,0.,12.0,0.,12.0,0.,12.0
1979-07-14 03:33:51.400 ,0,0,0.,12.0,0.,12.0,0.,12.0,0.,12.0
1979-07-14 03:34:03.400 ,7,1,0.,12.0,0.,12.0,0.,12.0,0.,12.0
1979-07-14 03:34:15.400 ,7,1,1.,12.0,0.,12.0,0.,12.0,0.,12.0
1979-07-14 03:34:27.400 ,4,1,0.,12.0,0.,12.0,0.,12.0,0.,12.0
1979-07-14 03:34:39.400 ,4,1,0.,12.0,0.,12.0,0.,12.0,0.,12.0
1979-07-14 03:34:51.400 ,0,1,0.,12.0,0.,12.0,0.,12.0,0.,12.0
1979-07-14 03:35:03.400 ,0,1,0.,12.0,0.,12.0,0.,12.0,0.,12.0
1979-07-14 03:35:15.400 ,3,1,0.,12.0,0.,12.0,0.,12.0,0.,12.0
1979-07-14 03:35:27.400 ,3,1,0.,12.0,0.,12.0,0.,12.0,0.,12.0
1979-07-14 03:35:39.400 ,7,1,0.,12.0,0.,12.0,0.,12.0,0.,12.0
1979-07-14 03:35:51.400 ,7,1,0.,12.0,0.,12.0,0.,12.0,0.,12.0
1979-07-14 03:36:03.400 ,4,1,0.,12.0,0.,12.0,0.,12.0,0.,12.0
1979-07-14 03:36:15.400 ,4,1,0.,12.0,0.,12.0,0.,12.0,0.,12.0
1979-07-14 03:36:27.400 ,0,1,0.,12.0,0.,12.0,0.,12.0,0.,12.0
1979-07-14 03:36:39.400 ,0,1,0.,12.0,0.,12.0,0.,12.0,0.,12.0
1979-07-14 03:36:51.400 ,3,1,0.,12.0,0.,12.0,0.,12.0,0.,12.0
1979-07-14 03:37:03.400 ,3,1,0.,12.0,0.,12.0,0.,12.0,1.,12.0
1979-07-14 03:37:15.400 ,7,1,0.,12.0,0.,12.0,0.,12.0,0.,12.0
1979-07-14 03:37:27.400 ,7,1,0.,12.0,0.,12.0,0.,12.0,0.,12.0
1979-07-14 03:37:39.400 ,4,1,0.,12.0,0.,12.0,0.,12.0,0.,12.0
1979-07-14 03:37:51.400 ,4,1,0.,12.0,0.,12.0,0.,12.0,0.,12.0
1979-07-14 03:38:03.400 ,0,1,0.,12.0,0.,12.0,0.,12.0,0.,12.0
1979-07-14 03:38:15.400 ,0,1,0.,12.0,0.,12.0,0.,12.0,0.,12.0
1979-07-14 03:38:27.400 ,3,1,1.,12.0,0.,12.0,0.,12.0,0.,12.0
1979-07-14 03:38:39.400 ,3,1,0.,12.0,0.,12.0,0.,12.0,0.,12.0
1979-07-14 03:38:51.400 ,7,1,0.,12.0,0.,12.0,0.,12.0,0.,12.0
1979-07-14 03:39:03.400 ,7,1,0.,12.0,0.,12.0,0.,12.0,0.,12.0
1979-07-14 03:39:15.400 ,4,1,0.,12.0,0.,12.0,0.,12.0,0.,12.0
1979-07-14 03:39:27.400 ,4,1,0.,12.0,0.,12.0,0.,12.0,0.,12.0
1979-07-14 03:39:39.400 ,0,1,0.,12.0,0.,12.0,0.,12.0,0.,12.0
1979-07-14 03:39:51.400 ,0,1,0.,12.0,0.,12.0,0.,12.0,0.,12.0
1979-07-14 03:40:03.400 ,3,1,0.,12.0,0.,12.0,0.,12.0,0.,12.0
1979-07-14 03:40:15.400 ,3,1,0.,12.0,0.,12.0,0.,12.0,0.,12.0
1979-07-14 03:40:27.400 ,7,1,0.,12.0,0.,12.0,0.,12.0,1.,12.0
1979-07-14 03:40:39.400 ,7,1,0.,12.0,0.,12.0,0.,12.0,0.,12.0
1979-07-14 03:40:51.400 ,4,1,0.,12.0,0.,12.0,0.,12.0,0.,12.0
1979-07-14 03:41:03.400 ,4,1,1.,12.0,0.,12.0,0.,12.0,0.,12.0
1979-07-14 03:41:15.400 ,0,1,0.,12.0,0.,12.0,0.,12.0,0.,12.0
1979-07-14 03:41:27.400 ,0,1,0.,12.0,0.,12.0,0.,12.0,0.,12.0
1979-07-14 03:41:39.400 ,0,0,0.,12.0,0.,12.0,0.,12.0,0.,12.0
1979-07-14 03:41:51.400 ,0,0,0.,12.0,0.,12.0,0.,12.0,0.,12.0
1979-07-14 03:42:03.400 ,0,0,0.,12.0,0.,12.0,0.,12.0,0.,12.0
1979-07-14 03:42:15.400 ,0,0,0.,12.0,0.,12.0,0.,12.0,0.,12.0
1979-07-14 03:42:27.400 ,5,1,0.,12.0,0.,12.0,0.,12.0,0.,12.0
1979-07-14 03:42:39.400 ,5,1,0.,12.0,0.,12.0,0.,12.0,0.,12.0
1979-07-14 03:42:51.400 ,5,0,0.,12.0,0.,12.0,0.,12.0,0.,12.0
1979-07-14 03:43:03.400 ,5,0,0.,12.0,0.,12.0,0.,12.0,0.,12.0
1979-07-14 03:43:15.400 ,4,1,1.,12.0,0.,12.0,0.,12.0,0.,12.0
1979-07-14 03:43:27.400 ,4,1,0.,12.0,0.,12.0,0.,12.0,0.,12.0
1979-07-14 03:43:39.400 ,4,0,0.,12.0,0.,12.0,0.,12.0,0.,12.0
1979-07-14 03:43:51.400 ,4,0,3.,12.0,0.,12.0,0.,12.0,0.,12.0
1979-07-14 03:44:03.400 ,3,1,0.,12.0,0.,12.0,0.,12.0,0.,12.0
1979-07-14 03:44:15.400 ,3,1,0.,12.0,0.,12.0,0.,12.0,0.,12.0
1979-07-14 03:44:27.400 ,3,0,0.,12.0,0.,12.0,0.,12.0,0.,12.0
1979-07-14 03:44:39.400 ,3,0,0.,12.0,0.,12.0,0.,12.0,0.,12.0
1979-07-14 03:44:51.400 ,2,1,1.,12.0,0.,12.0,0.,12.0,0.,12.0
1979-07-14 03:45:03.400 ,2,1,0.,12.0,0.,12.0,0.,12.0,0.,12.0
1979-07-14 03:45:15.400 ,2,0,1.,12.0,0.,12.0,0.,12.0,0.,12.0
1979-07-14 03:45:27.400 ,2,0,0.,12.0,0.,12.0,0.,12.0,0.,12.0
1979-07-14 03:45:39.400 ,1,1,0.,12.0,0.,12.0,0.,12.0,0.,12.0
1979-07-14 03:45:51.400 ,1,1,0.,12.0,0.,12.0,0.,12.0,0.,12.0
1979-07-14 03:46:03.400 ,1,0,0.,12.0,0.,12.0,0.,12.0,0.,12.0
1979-07-14 03:46:15.400 ,1,0,0.,12.0,0.,12.0,0.,12.0,0.,12.0
1979-07-14 03:46:27.400 ,0,1,0.,12.0,0.,12.0,0.,12.0,0.,12.0
1979-07-14 03:46:39.400 ,0,1,0.,12.0,0.,12.0,0.,12.0,0.,12.0
1979-07-14 03:46:51.400 ,0,0,0.,12.0,0.,12.0,0.,12.0,0.,12.0
1979-07-14 03:47:03.400 ,0,0,0.,12.0,0.,12.0,0.,12.0,0.,12.0
1979-07-14 03:47:15.400 ,0,1,0.,12.0,0.,12.0,0.,12.0,0.,12.0
1979-07-14 03:47:27.400 ,0,1,0.,12.0,0.,12.0,0.,12.0,0.,12.0
1979-07-14 03:47:39.400 ,0,0,0.,12.0,0.,12.0,0.,12.0,0.,12.0
1979-07-14 03:47:51.400 ,0,0,0.,12.0,0.,12.0,0.,12.0,0.,12.0
1979-07-14 03:48:03.400 ,1,1,0.,12.0,0.,12.0,0.,12.0,0.,12.0
1979-07-14 03:48:15.400 ,1,1,1.,12.0,0.,12.0,0.,12.0,0.,12.0
1979-07-14 03:48:27.400 ,1,0,0.,12.0,0.,12.0,0.,12.0,0.,12.0
1979-07-14 03:48:39.400 ,1,0,0.,12.0,0.,12.0,0.,12.0,0.,12.0
1979-07-14 03:48:51.400 ,2,1,0.,12.0,0.,12.0,0.,12.0,0.,12.0
1979-07-14 03:49:03.400 ,2,1,0.,12.0,0.,12.0,0.,12.0,0.,12.0
1979-07-14 03:49:15.400 ,2,0,0.,12.0,0.,12.0,0.,12.0,0.,12.0
1979-07-14 03:49:27.400 ,2,0,0.,12.0,0.,12.0,0.,12.0,0.,12.0
1979-07-14 03:49:39.400 ,3,1,0.,12.0,0.,12.0,0.,12.0,0.,12.0
1979-07-14 03:49:51.400 ,3,1,1.,12.0,0.,12.0,0.,12.0,0.,12.0
1979-07-14 03:50:03.400 ,3,0,0.,12.0,0.,12.0,0.,12.0,0.,12.0
1979-07-14 03:50:15.400 ,3,0,0.,12.0,0.,12.0,0.,12.0,0.,12.0
1979-07-14 03:50:27.400 ,4,1,0.,12.0,0.,12.0,0.,12.0,0.,12.0
1979-07-14 03:50:39.400 ,4,1,0.,12.0,0.,12.0,0.,12.0,0.,12.0
1979-07-14 03:50:51.400 ,4,0,0.,12.0,0.,12.0,0.,12.0,0.,12.0
1979-07-14 03:51:03.400 ,4,0,0.,12.0,0.,12.0,0.,12.0,0.,12.0
1979-07-14 03:51:15.400 ,5,1,0.,12.0,0.,12.0,0.,12.0,0.,12.0
1979-07-14 03:51:27.400 ,5,1,2.,12.0,0.,12.0,0.,12.0,0.,12.0
1979-07-14 03:51:39.400 ,5,0,0.,12.0,0.,12.0,0.,12.0,0.,12.0
1979-07-14 03:51:51.400 ,5,0,0.,12.0,0.,12.0,0.,12.0,0.,12.0
1979-07-14 03:52:03.400 ,6,1,0.,12.0,0.,12.0,0.,12.0,0.,12.0
1979-07-14 03:52:15.400 ,6,1,0.,12.0,0.,12.0,0.,12.0,0.,12.0
1979-07-14 03:52:27.400 ,6,0,0.,12.0,0.,12.0,0.,12.0,0.,12.0
1979-07-14 03:52:39.400 ,6,0,0.,12.0,0.,12.0,0.,12.0,0.,12.0
1979-07-14 03:52:51.400 ,7,1,0.,12.0,0.,12.0,0.,12.0,0.,12.0
1979-07-14 03:53:03.400 ,7,1,0.,12.0,0.,12.0,0.,12.0,0.,12.0
1979-07-14 03:53:15.400 ,7,0,0.,12.0,0.,12.0,0.,12.0,0.,12.0
1979-07-14 03:53:27.400 ,7,0,0.,12.0,0.,12.0,0.,12.0,0.,12.0
1979-07-14 03:53:39.400 ,7,1,0.,12.0,0.,12.0,0.,12.0,0.,12.0
1979-07-14 03:53:51.400 ,7,1,0.,12.0,0.,12.0,0.,12.0,0.,12.0
1979-07-14 03:54:03.400 ,7,0,0.,12.0,0.,12.0,0.,12.0,0.,12.0
1979-07-14 03:54:15.400 ,7,0,0.,12.0,0.,12.0,0.,12.0,0.,12.0
1979-07-14 03:54:27.400 ,6,1,0.,12.0,0.,12.0,0.,12.0,0.,12.0
1979-07-14 03:54:39.400 ,6,1,0.,12.0,0.,12.0,0.,12.0,0.,12.0
1979-07-14 03:54:51.400 ,6,0,0.,12.0,0.,12.0,0.,12.0,0.,12.0
1979-07-14 03:55:03.400 ,6,0,0.,12.0,0.,12.0,0.,12.0,0.,12.0
1979-07-14 03:55:15.400 ,5,1,0.,12.0,0.,12.0,0.,12.0,0.,12.0
1979-07-14 03:55:27.400 ,5,1,0.,12.0,0.,12.0,0.,12.0,0.,12.0
1979-07-14 03:55:39.400 ,5,0,0.,12.0,0.,12.0,0.,12.0,0.,12.0
1979-07-14 03:55:51.400 ,5,0,0.,12.0,0.,12.0,0.,12.0,0.,12.0
1979-07-14 03:56:03.400 ,4,1,1.,12.0,0.,12.0,0.,12.0,0.,12.0
1979-07-14 03:56:15.400 ,4,1,0.,12.0,0.,12.0,0.,12.0,0.,12.0
1979-07-14 03:56:27.400 ,4,0,0.,12.0,0.,12.0,0.,12.0,0.,12.0
1979-07-14 03:56:39.400 ,4,0,1.,12.0,0.,12.0,0.,12.0,0.,12.0
1979-07-14 03:56:51.400 ,3,1,0.,12.0,0.,12.0,0.,12.0,0.,12.0
1979-07-14 03:57:03.400 ,3,1,0.,12.0,0.,12.0,0.,12.0,0.,12.0
1979-07-14 03:57:15.400 ,3,0,0.,12.0,0.,12.0,0.,12.0,0.,12.0
1979-07-14 03:57:27.400 ,3,0,0.,12.0,0.,12.0,0.,12.0,0.,12.0
1979-07-14 03:57:39.400 ,2,1,0.,12.0,0.,12.0,0.,12.0,0.,12.0
1979-07-14 03:57:51.400 ,2,1,0.,12.0,0.,12.0,0.,12.0,0.,12.0
1979-07-14 03:58:03.400 ,2,0,0.,12.0,0.,12.0,0.,12.0,0.,12.0
1979-07-14 03:58:15.400 ,2,0,0.,12.0,0.,12.0,0.,12.0,0.,12.0
1979-07-14 03:58:27.390 ,1,1,0.,12.0,0.,12.0,0.,12.0,1.,12.0
1979-07-14 03:58:39.390 ,1,1,0.,12.0,0.,12.0,0.,12.0,0.,12.0
1979-07-14 03:58:51.390 ,1,0,0.,12.0,0.,12.0,0.,12.0,0.,12.0
1979-07-14 03:59:03.390 ,1,0,0.,12.0,0.,12.0,0.,12.0,0.,12.0
1979-07-14 03:59:15.390 ,0,1,0.,12.0,0.,12.0,0.,12.0,0.,12.0
1979-07-14 03:59:27.390 ,0,1,0.,12.0,0.,12.0,0.,12.0,0.,12.0
1979-07-14 03:59:39.390 ,0,0,0.,12.0,0.,12.0,0.,12.0,0.,12.0
1979-07-14 03:59:51.390 ,0,0,0.,12.0,0.,12.0,0.,12.0,0.,12.0
1979-07-14 04:00:03.390 ,0,1,0.,12.0,0.,12.0,0.,12.0,0.,12.0
1979-07-14 04:00:15.390 ,0,1,0.,12.0,0.,12.0,0.,12.0,0.,12.0
1979-07-14 04:00:27.390 ,0,0,0.,12.0,0.,12.0,0.,12.0,0.,12.0
1979-07-14 04:00:39.390 ,0,0,0.,12.0,0.,12.0,0.,12.0,0.,12.0
1979-07-14 04:00:51.390 ,1,1,0.,12.0,0.,12.0,0.,12.0,0.,12.0
1979-07-14 04:01:03.390 ,1,1,0.,12.0,0.,12.0,0.,12.0,0.,12.0
1979-07-14 04:01:15.390 ,1,0,0.,12.0,0.,12.0,0.,12.0,0.,12.0
1979-07-14 04:01:27.390 ,1,0,1.,12.0,0.,12.0,0.,12.0,0.,12.0
1979-07-14 04:01:39.390 ,2,1,0.,12.0,0.,12.0,0.,12.0,0.,12.0
1979-07-14 04:01:51.390 ,2,1,0.,12.0,0.,12.0,0.,12.0,0.,12.0
1979-07-14 04:02:03.390 ,2,0,0.,12.0,0.,12.0,0.,12.0,0.,12.0
1979-07-14 04:02:15.390 ,2,0,0.,12.0,0.,12.0,0.,12.0,0.,12.0
1979-07-14 04:02:27.390 ,3,1,0.,12.0,0.,12.0,0.,12.0,0.,12.0
1979-07-14 04:02:39.390 ,3,1,0.,12.0,0.,12.0,0.,12.0,0.,12.0
1979-07-14 04:02:51.390 ,3,0,0.,12.0,0.,12.0,0.,12.0,0.,12.0
1979-07-14 04:03:03.390 ,3,0,0.,12.0,0.,12.0,0.,12.0,0.,12.0
1979-07-14 04:03:15.390 ,4,1,0.,12.0,0.,12.0,0.,12.0,0.,12.0
1979-07-14 04:03:27.390 ,4,1,2.,12.0,0.,12.0,0.,12.0,0.,12.0
1979-07-14 04:03:39.390 ,4,0,0.,12.0,0.,12.0,0.,12.0,0.,12.0
1979-07-14 04:03:51.390 ,4,0,0.,12.0,0.,12.0,0.,12.0,0.,12.0
1979-07-14 04:04:03.390 ,5,1,0.,12.0,0.,12.0,0.,12.0,0.,12.0
1979-07-14 04:04:15.390 ,5,1,0.,12.0,0.,12.0,0.,12.0,0.,12.0
1979-07-14 04:04:27.390 ,5,0,0.,12.0,0.,12.0,0.,12.0,0.,12.0
1979-07-14 04:04:39.390 ,5,0,0.,12.0,0.,12.0,0.,12.0,0.,12.0
1979-07-14 04:04:51.390 ,6,1,0.,12.0,0.,12.0,0.,12.0,0.,12.0
1979-07-14 04:05:03.390 ,6,1,0.,12.0,0.,12.0,0.,12.0,0.,12.0
1979-07-14 04:05:15.390 ,6,0,0.,12.0,0.,12.0,0.,12.0,0.,12.0
1979-07-14 04:05:27.390 ,6,0,0.,12.0,0.,12.0,0.,12.0,0.,12.0
1979-07-14 04:05:39.390 ,7,1,0.,12.0,0.,12.0,0.,12.0,0.,12.0
1979-07-14 04:05:51.390 ,7,1,0.,12.0,0.,12.0,0.,12.0,0.,12.0
1979-07-14 04:06:03.390 ,7,0,0.,12.0,0.,12.0,0.,12.0,0.,12.0
1979-07-14 04:06:15.390 ,7,0,0.,12.0,0.,12.0,0.,12.0,0.,12.0
1979-07-14 04:06:27.390 ,7,1,0.,12.0,0.,12.0,0.,12.0,0.,12.0
1979-07-14 04:06:39.390 ,7,1,0.,12.0,0.,12.0,0.,12.0,0.,12.0
1979-07-14 04:06:51.390 ,7,0,0.,12.0,0.,12.0,0.,12.0,0.,12.0
1979-07-14 04:07:03.390 ,7,0,0.,12.0,0.,12.0,0.,12.0,0.,12.0
1979-07-14 04:07:15.390 ,6,1,0.,12.0,0.,12.0,0.,12.0,0.,12.0
1979-07-14 04:07:27.390 ,6,1,0.,12.0,0.,12.0,0.,12.0,0.,12.0
1979-07-14 04:07:39.390 ,6,0,0.,12.0,0.,12.0,0.,12.0,0.,12.0
1979-07-14 04:07:51.390 ,6,0,0.,12.0,0.,12.0,0.,12.0,0.,12.0
1979-07-14 04:08:03.390 ,5,1,1.,12.0,0.,12.0,0.,12.0,1.,12.0
1979-07-14 04:08:15.390 ,5,1,0.,12.0,0.,12.0,0.,12.0,0.,12.0
1979-07-14 04:08:27.390 ,5,0,1.,12.0,0.,12.0,0.,12.0,0.,12.0
1979-07-14 04:08:39.390 ,5,0,0.,12.0,0.,12.0,0.,12.0,0.,12.0
1979-07-14 04:08:51.390 ,4,1,1.,12.0,0.,12.0,0.,12.0,0.,12.0
1979-07-14 04:09:03.390 ,4,1,0.,12.0,0.,12.0,0.,12.0,0.,12.0
1979-07-14 04:09:15.390 ,4,0,0.,12.0,0.,12.0,0.,12.0,0.,12.0
1979-07-14 04:09:27.390 ,4,0,0.,12.0,0.,12.0,0.,12.0,0.,12.0
1979-07-14 04:09:39.390 ,3,1,1.,12.0,0.,12.0,0.,12.0,0.,12.0
1979-07-14 04:09:51.390 ,3,1,0.,12.0,0.,12.0,0.,12.0,0.,12.0
1979-07-14 04:10:03.390 ,3,0,0.,12.0,0.,12.0,0.,12.0,0.,12.0
1979-07-14 04:10:15.390 ,3,0,0.,12.0,0.,12.0,0.,12.0,0.,12.0
1979-07-14 04:10:27.390 ,2,1,1.,12.0,0.,12.0,0.,12.0,0.,12.0
1979-07-14 04:10:39.390 ,2,1,0.,12.0,0.,12.0,0.,12.0,0.,12.0
1979-07-14 04:10:51.390 ,2,0,0.,12.0,0.,12.0,0.,12.0,0.,12.0
1979-07-14 04:11:03.390 ,2,0,0.,12.0,0.,12.0,0.,12.0,0.,12.0
1979-07-14 04:11:15.390 ,1,1,0.,12.0,0.,12.0,0.,12.0,0.,12.0
1979-07-14 04:11:27.390 ,1,1,0.,12.0,0.,12.0,0.,12.0,0.,12.0
1979-07-14 04:11:39.390 ,1,0,0.,12.0,0.,12.0,0.,12.0,0.,12.0
1979-07-14 04:11:51.390 ,1,0,0.,12.0,0.,12.0,0.,12.0,0.,12.0
1979-07-14 04:12:03.390 ,0,1,0.,12.0,0.,12.0,0.,12.0,0.,12.0
1979-07-14 04:12:15.390 ,0,1,0.,12.0,0.,12.0,0.,12.0,0.,12.0
1979-07-14 04:12:27.390 ,0,0,0.,12.0,0.,12.0,0.,12.0,0.,12.0
1979-07-14 04:12:39.390 ,0,0,0.,12.0,0.,12.0,0.,12.0,0.,12.0
1979-07-14 04:12:51.390 ,0,1,0.,12.0,0.,12.0,0.,12.0,0.,12.0
1979-07-14 04:13:03.390 ,0,1,0.,12.0,0.,12.0,0.,12.0,0.,12.0
1979-07-14 04:13:15.390 ,0,0,0.,12.0,0.,12.0,0.,12.0,0.,12.0
1979-07-14 04:13:27.390 ,0,0,0.,12.0,0.,12.0,0.,12.0,0.,12.0
1979-07-14 04:13:39.390 ,1,1,0.,12.0,0.,12.0,0.,12.0,0.,12.0
1979-07-14 04:13:51.390 ,1,1,0.,12.0,0.,12.0,0.,12.0,0.,12.0
1979-07-14 04:14:03.390 ,1,0,0.,12.0,0.,12.0,0.,12.0,0.,12.0
1979-07-14 04:14:15.390 ,1,0,0.,12.0,0.,12.0,0.,12.0,0.,12.0
1979-07-14 04:14:27.390 ,2,1,0.,12.0,0.,12.0,0.,12.0,0.,12.0
1979-07-14 04:14:39.390 ,2,1,0.,12.0,0.,12.0,0.,12.0,0.,12.0
1979-07-14 04:14:51.390 ,2,0,0.,12.0,0.,12.0,0.,12.0,0.,12.0
1979-07-14 04:15:03.390 ,2,0,0.,12.0,0.,12.0,0.,12.0,0.,12.0
1979-07-14 04:15:15.390 ,3,1,0.,12.0,0.,12.0,0.,12.0,0.,12.0
1979-07-14 04:15:27.390 ,3,1,0.,12.0,0.,12.0,0.,12.0,0.,12.0
1979-07-14 04:15:39.390 ,3,0,0.,12.0,0.,12.0,0.,12.0,0.,12.0
1979-07-14 04:15:51.390 ,3,0,0.,12.0,0.,12.0,0.,12.0,0.,12.0
1979-07-14 04:16:03.390 ,4,1,0.,12.0,0.,12.0,0.,12.0,1.,12.0
1979-07-14 04:16:15.390 ,4,1,0.,12.0,0.,12.0,0.,12.0,0.,12.0
1979-07-14 04:16:27.390 ,4,0,0.,12.0,0.,12.0,0.,12.0,0.,12.0
1979-07-14 04:16:39.390 ,4,0,0.,12.0,0.,12.0,0.,12.0,0.,12.0
1979-07-14 04:16:51.390 ,5,1,0.,12.0,0.,12.0,0.,12.0,0.,12.0
1979-07-14 04:17:03.390 ,5,1,0.,12.0,0.,12.0,0.,12.0,0.,12.0
1979-07-14 04:17:15.390 ,5,0,0.,12.0,0.,12.0,0.,12.0,0.,12.0
1979-07-14 04:17:27.390 ,5,0,0.,12.0,0.,12.0,0.,12.0,0.,12.0
1979-07-14 04:17:39.390 ,6,1,0.,12.0,0.,12.0,0.,12.0,0.,12.0
1979-07-14 04:17:51.390 ,6,1,0.,12.0,0.,12.0,0.,12.0,0.,12.0
1979-07-14 04:18:03.390 ,6,0,0.,12.0,0.,12.0,0.,12.0,0.,12.0
1979-07-14 04:18:15.390 ,6,0,0.,12.0,0.,12.0,0.,12.0,0.,12.0